FENGYUN 1C DEB

Satellite information

Favourite Embed

Satellite Type and Status

DEBRISIN ORBIT

Key statistics

Satellite FENGYUN 1C DEB at a glance.

Uptime

9715

Days in orbit

Revolutions

≈ 13.5

Per day

Orbit

SSO

Sun Synchronous Orbit

Inclination

101.4

Latest

Satellite identification and parameters

Extended collection of information and parameters for FENGYUN 1C DEB.

Object identification

Identified? True

Debris? True

Object name: FENGYUN 1C DEB

International designator: 1999-025DWN

Object number (NORAD): 36261

Object ID (CCSDS): 36261

Country: PEOPLES REPUBLIC OF CHINA (PRC)

Current information (Y/N): Y

RCS size: SMALL

Orbital parameters

Period: 107.025 minutes

Inclination: 101.3651 deg

SMA: 7467.084 km

Apoapsis: 1354.353 km

Periapsis: 823.544 km

RAAN: 236.4477 deg

Eccentricy: 0.0355433

Argument of periapsis: 80.3414 deg

Mean anomaly: 283.7668 deg

Mean motion: 13.45476909 rev/day

Mean motion (dot): 0.00000584 rev/day2

B* drag term: 0.00073435 1/REarth

Two-line elements (TLE)

Creation date: Dec. 10, 2025, 10:36 p.m.

Reference frame: TEME

Reference center: EARTH

Epoch: Dec. 10, 2025, 12:51 p.m. UTC

TLE line 0: 0 FENGYUN 1C DEB

TLE line 1: 1 36261U 99025DWN 25344.53593407 .00000584 00000-0 73435-3 0 9999

TLE line 2: 2 36261 101.3651 236.4477 0355433 80.3414 283.7668 13.45476909844030

Live tracking on map

Real-time ground track for satellite FENGYUN 1C DEB.

In-orbit conjunctions

A list of the most updated potential collisions computed for object FENGYUN 1C DEB.

Target Orbit TCA Probability of collision Miss distance Type
FENGYUN 1C DEB SSO 2025-02-08 09:39:19 0.0004223641 60.0 (m) DEBRIS
JD 2 LEO 2024-10-05 10:32:54 0.0002967935 562.0 (m) PAYLOAD
FENGYUN 1C DEB SSO 2024-09-26 11:16:30 0.0002435147 333.0 (m) DEBRIS

Associated space launch

Chinese polar orbiting meteorological satellite

FENGYUN 1C DEB was lifted into orbit during the mission ‘Long March 4B | Feng Yun 1C’, on board a Long March 4B space rocket.

The launch took place on May 10, 1999, 1:33 a.m. from Launch Complex 7.

For more information about the launch, click the button.

Launch to space Long March 4B | Feng Yun 1C
Long March 4B | Feng Yun 1C

Agency: N/A

Status: Launch Successful

Launch date: May 10, 1999, 1:33 a.m. UTC

Rocket: Long March 4B

Launch pad: Launch Complex 7

Location: Taiyuan Satellite Launch Center, People's Republic of China

...

Latest news about this satellite

There are no fresh news available about this satellite. Check back as we update our databases every day.


Newsletter sign-up

Weekly statistics, charts and insights to help you stay on top of the space industry.